{"data":{"norad_id":68672,"epoch":"2026-05-25T03:17:16.393056Z","epoch_age_seconds":53288,"freshness":"FRESH","line1":"1 68672U 26077L   26145.13699529  .00009297  00000+0  28982-3 0  9991","line2":"2 68672  97.2866  16.7092 0001622  99.8945 260.2481 15.33457137  6872","mean_motion":15.33457137,"eccentricity":0.0001622,"inclination_deg":97.2866,"raan_deg":16.7092,"arg_perigee_deg":99.8945,"mean_anomaly_deg":260.2481,"bstar":0.00028982,"rev_number":687,"period_min":93.905461408407,"perigee_km":464.39702447631,"apogee_km":466.61710261052,"semimajor_km":6843.6440635434,"source":"CELESTRAK","updated_at":"2026-05-25T13:38:21.993560Z"}}